Menu Close Menu
Station Historical Data
Daily Summary for October 19, 2017 Units:  Metric    English   Both
« Previous Day
Next Day »
Daily Weekly Monthly Yearly Custom
  High: Low: Average:
Temperature: 23.1 °C 7.3 °C 13.8 °C
Dew Point: 10.8 °C 4.7 °C 7.9 °C
Humidity: 93% 33% 71%
Wind Speed: 9.7km/h 1.6km/h 5.6km/h
Wind Gust: 9.7km/h - -
Wind- - South
Pressure: 1028.3 hPa 1024.3 hPa -
Precipitation: 0 mm    
Historical Graphs
 
 
Tabular Data for October 19, 2017
Time Temperature Dew Point Pressure Wind Wind Speed Wind Gust Humidity Rainfall Rate (Hourly) solar Conditions
00:01 10.4 °C 7.8 °C 1027 hPa East 3.7 km/h 3.7 km/h 84% 0 mm WeatherDisplay:10.37 W/m2 CLR
00:06 10.3 °C 7.9 °C 1027 hPa East 3.7 km/h 3.7 km/h 85% 0 mm WeatherDisplay:10.37 W/m2 CLR
00:11 10.2 °C 7.8 °C 1027 hPa East 3.7 km/h 3.7 km/h 85% 0 mm WeatherDisplay:10.37 W/m2 CLR
00:16 10.1 °C 7.7 °C 1027 hPa East 3.7 km/h 3.7 km/h 85% 0 mm WeatherDisplay:10.37 W/m2 CLR
00:21 10.1 °C 7.7 °C 1027 hPa East 3.7 km/h 3.7 km/h 85% 0 mm WeatherDisplay:10.37 W/m2 CLR
00:25 10.1 °C 7.7 °C 1027 hPa East 3.7 km/h 3.7 km/h 85% 0 mm WeatherDisplay:10.37 W/m2 CLR
00:30 10.1 °C 7.7 °C 1027 hPa East 3.7 km/h 3.7 km/h 85% 0 mm WeatherDisplay:10.37 W/m2 CLR
00:35 9.9 °C 7.7 °C 1027 hPa East 3.7 km/h 3.7 km/h 86% 0 mm WeatherDisplay:10.37 W/m2 CLR
00:40 9.8 °C 7.6 °C 1027 hPa East 3.7 km/h 3.7 km/h 86% 0 mm WeatherDisplay:10.37 W/m2 CLR
00:45 9.7 °C 7.4 °C 1027 hPa East 3.7 km/h 3.7 km/h 86% 0 mm WeatherDisplay:10.37 W/m2 CLR
00:50 9.6 °C 7.6 °C 1026.6 hPa East 3.7 km/h 3.7 km/h 87% 0 mm WeatherDisplay:10.37 W/m2 CLR
00:55 9.5 °C 7.4 °C 1026.6 hPa East 3.7 km/h 3.7 km/h 87% 0 mm WeatherDisplay:10.37 W/m2 CLR
01:00 9.6 °C 7.5 °C 1026.6 hPa East 3.7 km/h 3.7 km/h 87% 0 mm WeatherDisplay:10.37 W/m2 CLR
01:05 9.7 °C 7.4 °C 1027 hPa East 3.7 km/h 3.7 km/h 86% 0 mm WeatherDisplay:10.37 W/m2 CLR
01:10 9.7 °C 7.4 °C 1026.6 hPa East 3.7 km/h 3.7 km/h 86% 0 mm WeatherDisplay:10.37 W/m2 CLR
01:15 9.5 °C 7.3 °C 1026.6 hPa East 3.7 km/h 3.7 km/h 86% 0 mm WeatherDisplay:10.37 W/m2 CLR
01:20 9.4 °C 7.3 °C 1026.6 hPa East 3.7 km/h 3.7 km/h 87% 0 mm WeatherDisplay:10.37 W/m2 CLR
01:25 9.3 °C 7.1 °C 1026.6 hPa East 3.7 km/h 3.7 km/h 86% 0 mm WeatherDisplay:10.37 W/m2 CLR
01:30 9.4 °C 7 °C 1026.6 hPa East 3.7 km/h 3.7 km/h 85% 0 mm WeatherDisplay:10.37 W/m2 CLR
01:35 9.5 °C 7.1 °C 1026.6 hPa East 3.7 km/h 3.7 km/h 85% 0 mm WeatherDisplay:10.37 W/m2 CLR
01:40 9.6 °C 7.2 °C 1026.6 hPa East 3.7 km/h 3.7 km/h 85% 0 mm WeatherDisplay:10.37 W/m2 CLR
01:46 9.5 °C 7.1 °C 1026.6 hPa East 3.7 km/h 3.7 km/h 85% 0 mm WeatherDisplay:10.37 W/m2 CLR
01:51 9.4 °C 7.1 °C 1026.6 hPa East 3.7 km/h 3.7 km/h 85% 0 mm WeatherDisplay:10.37 W/m2 CLR
01:56 9.4 °C 7 °C 1026.6 hPa East 3.7 km/h 3.7 km/h 85% 0 mm WeatherDisplay:10.37 W/m2 CLR
02:01 9.4 °C 7 °C 1026.6 hPa East 3.7 km/h 3.7 km/h 85% 0 mm WeatherDisplay:10.37 W/m2 CLR
02:06 9.3 °C 7.1 °C 1026.6 hPa East 3.7 km/h 3.7 km/h 86% 0 mm WeatherDisplay:10.37 W/m2 CLR
02:11 9.2 °C 7 °C 1026.6 hPa East 3.7 km/h 3.7 km/h 86% 0 mm WeatherDisplay:10.37 W/m2 CLR
02:16 9.1 °C 7.1 °C 1026.6 hPa East 3.7 km/h 3.7 km/h 87% 0 mm WeatherDisplay:10.37 W/m2 CLR
02:21 9 °C 6.9 °C 1026.6 hPa East 3.7 km/h 3.7 km/h 87% 0 mm WeatherDisplay:10.37 W/m2 CLR
02:26 8.9 °C 6.9 °C 1026.6 hPa East 3.7 km/h 3.7 km/h 87% 0 mm WeatherDisplay:10.37 W/m2 CLR
02:31 8.9 °C 6.8 °C 1026.6 hPa East 3.7 km/h 3.7 km/h 87% 0 mm WeatherDisplay:10.37 W/m2 CLR
02:36 8.8 °C 6.7 °C 1026.6 hPa East 3.7 km/h 3.7 km/h 87% 0 mm WeatherDisplay:10.37 W/m2 CLR
02:41 8.7 °C 6.8 °C 1026.6 hPa East 3.7 km/h 3.7 km/h 88% 0 mm WeatherDisplay:10.37 W/m2 CLR
02:46 8.7 °C 6.8 °C 1026.3 hPa East 3.7 km/h 3.7 km/h 88% 0 mm WeatherDisplay:10.37 W/m2 CLR
02:51 8.6 °C 6.7 °C 1026.3 hPa East 3.7 km/h 3.7 km/h 88% 0 mm WeatherDisplay:10.37 W/m2 CLR
02:56 8.6 °C 6.7 °C 1026.3 hPa East 3.7 km/h 3.7 km/h 88% 0 mm WeatherDisplay:10.37 W/m2 CLR
03:01 8.5 °C 6.8 °C 1026.3 hPa East 3.7 km/h 3.7 km/h 89% 0 mm WeatherDisplay:10.37 W/m2 CLR
03:06 8.5 °C 6.8 °C 1026.3 hPa East 3.7 km/h 3.7 km/h 89% 0 mm WeatherDisplay:10.37 W/m2 CLR
03:11 8.5 °C 6.6 °C 1026.6 hPa East 3.7 km/h 3.7 km/h 88% 0 mm WeatherDisplay:10.37 W/m2 CLR
03:17 8.5 °C 6.8 °C 1026.6 hPa East 3.7 km/h 3.7 km/h 89% 0 mm WeatherDisplay:10.37 W/m2 CLR
03:22 8.4 °C 6.5 °C 1026.3 hPa East 3.7 km/h 3.7 km/h 88% 0 mm WeatherDisplay:10.37 W/m2 CLR
03:27 8.3 °C 6.6 °C 1026.3 hPa East 3.7 km/h 3.7 km/h 89% 0 mm WeatherDisplay:10.37 W/m2 CLR
03:32 8.2 °C 6.5 °C 1026.3 hPa East 3.7 km/h 3.7 km/h 89% 0 mm WeatherDisplay:10.37 W/m2 CLR
03:37 8.2 °C 6.5 °C 1026.3 hPa East 3.7 km/h 3.7 km/h 89% 0 mm WeatherDisplay:10.37 W/m2 CLR
03:42 8.2 °C 6.4 °C 1026.3 hPa East 3.7 km/h 3.7 km/h 89% 0 mm WeatherDisplay:10.37 W/m2 CLR
03:47 8.2 °C 6.4 °C 1026.3 hPa East 3.7 km/h 3.7 km/h 89% 0 mm WeatherDisplay:10.37 W/m2 CLR
03:52 8.2 °C 6.5 °C 1026.3 hPa East 3.7 km/h 3.7 km/h 89% 0 mm WeatherDisplay:10.37 W/m2 CLR
03:57 8.2 °C 6.5 °C 1026.3 hPa East 3.7 km/h 3.7 km/h 89% 0 mm WeatherDisplay:10.37 W/m2 CLR
04:02 8.2 °C 6.4 °C 1026.3 hPa East 3.7 km/h 3.7 km/h 89% 0 mm WeatherDisplay:10.37 W/m2 CLR
04:07 8.1 °C 6.3 °C 1026.3 hPa East 3.7 km/h 3.7 km/h 89% 0 mm WeatherDisplay:10.37 W/m2 CLR
04:12 8 °C 6.3 °C 1026.3 hPa East 3.7 km/h 3.7 km/h 89% 0 mm WeatherDisplay:10.37 W/m2 CLR
04:17 7.9 °C 6.2 °C 1026.3 hPa East 3.7 km/h 3.7 km/h 89% 0 mm WeatherDisplay:10.37 W/m2 CLR
04:22 7.9 °C 6.4 °C 1026.3 hPa East 3.7 km/h 3.7 km/h 90% 0 mm WeatherDisplay:10.37 W/m2 CLR
04:27 8 °C 6.3 °C 1026.3 hPa East 3.7 km/h 3.7 km/h 89% 0 mm WeatherDisplay:10.37 W/m2 CLR
04:33 7.9 °C 6.2 °C 1026.3 hPa East 3.7 km/h 3.7 km/h 89% 0 mm WeatherDisplay:10.37 W/m2 CLR
04:38 7.8 °C 6.1 °C 1026.3 hPa East 3.7 km/h 3.7 km/h 89% 0 mm WeatherDisplay:10.37 W/m2 CLR
04:43 7.8 °C 6.2 °C 1026.3 hPa East 3.7 km/h 3.7 km/h 90% 0 mm WeatherDisplay:10.37 W/m2 CLR
04:48 7.7 °C 6.2 °C 1026.3 hPa East 3.7 km/h 3.7 km/h 90% 0 mm WeatherDisplay:10.37 W/m2 CLR
04:53 7.7 °C 6.1 °C 1026.3 hPa East 3.7 km/h 3.7 km/h 90% 0 mm WeatherDisplay:10.37 W/m2 CLR
04:58 7.6 °C 6.1 °C 1026.3 hPa East 3.7 km/h 3.7 km/h 90% 0 mm WeatherDisplay:10.37 W/m2 CLR
05:03 7.6 °C 6.1 °C 1026.3 hPa East 3.7 km/h 3.7 km/h 90% 0 mm WeatherDisplay:10.37 W/m2 CLR
05:08 7.6 °C 6 °C 1026.3 hPa East 3.7 km/h 3.7 km/h 90% 0 mm WeatherDisplay:10.37 W/m2 CLR
05:13 7.6 °C 6.2 °C 1026.3 hPa East 3.7 km/h 3.7 km/h 91% 0 mm WeatherDisplay:10.37 W/m2 CLR
05:18 7.8 °C 6.4 °C 1026.3 hPa East 3.7 km/h 3.7 km/h 91% 0 mm WeatherDisplay:10.37 W/m2 CLR
05:23 7.9 °C 6.5 °C 1026.3 hPa East 3.7 km/h 3.7 km/h 91% 0 mm WeatherDisplay:10.37 W/m2 CLR
05:28 7.9 °C 6.5 °C 1026.3 hPa East 3.7 km/h 3.7 km/h 91% 0 mm WeatherDisplay:10.37 W/m2 CLR
05:33 7.8 °C 6.4 °C 1026.3 hPa East 3.7 km/h 3.7 km/h 91% 0 mm WeatherDisplay:10.37 W/m2 CLR
05:38 7.8 °C 6.4 °C 1026.3 hPa East 3.7 km/h 3.7 km/h 91% 0 mm WeatherDisplay:10.37 W/m2 CLR
05:43 7.7 °C 6.3 °C 1026.3 hPa East 3.7 km/h 3.7 km/h 91% 0 mm WeatherDisplay:10.37 W/m2 CLR
05:48 7.7 °C 6.3 °C 1026.6 hPa East 3.7 km/h 3.7 km/h 91% 0 mm WeatherDisplay:10.37 W/m2 CLR
05:53 7.8 °C 6.4 °C 1026.6 hPa East 3.7 km/h 3.7 km/h 91% 0 mm WeatherDisplay:10.37 W/m2 CLR
05:58 7.9 °C 6.6 °C 1026.6 hPa East 3.7 km/h 3.7 km/h 91% 0 mm WeatherDisplay:10.37 W/m2 CLR
06:03 8 °C 6.8 °C 1026.6 hPa East 3.7 km/h 3.7 km/h 92% 0 mm WeatherDisplay:10.37 W/m2 CLR
06:09 8 °C 6.6 °C 1026.6 hPa East 3.7 km/h 3.7 km/h 91% 0 mm WeatherDisplay:10.37 W/m2 CLR
06:14 7.9 °C 6.5 °C 1026.6 hPa East 3.7 km/h 3.7 km/h 91% 0 mm WeatherDisplay:10.37 W/m2 CLR
06:19 7.8 °C 6.4 °C 1026.6 hPa East 3.7 km/h 3.7 km/h 91% 0 mm WeatherDisplay:10.37 W/m2 CLR
06:24 7.8 °C 6.4 °C 1026.6 hPa East 3.7 km/h 3.7 km/h 91% 0 mm WeatherDisplay:10.37 W/m2 CLR
06:29 7.8 °C 6.4 °C 1026.3 hPa East 3.7 km/h 3.7 km/h 91% 0 mm WeatherDisplay:10.37 W/m2 CLR
06:34 7.8 °C 6.4 °C 1026.6 hPa East 3.7 km/h 3.7 km/h 91% 0 mm WeatherDisplay:10.37 W/m2 CLR
06:39 7.9 °C 6.7 °C 1026.6 hPa East 3.7 km/h 3.7 km/h 92% 0 mm WeatherDisplay:10.37 W/m2 CLR
06:44 7.9 °C 6.6 °C 1026.6 hPa East 3.7 km/h 3.7 km/h 91% 0 mm WeatherDisplay:10.37 W/m2 CLR
06:49 7.9 °C 6.6 °C 1026.6 hPa East 3.7 km/h 3.7 km/h 91% 0 mm WeatherDisplay:10.37 W/m2 CLR
06:54 7.8 °C 6.4 °C 1026.6 hPa East 3.7 km/h 3.7 km/h 91% 0 mm WeatherDisplay:10.37 W/m2 CLR
06:59 7.7 °C 6.3 °C 1026.6 hPa East 3.7 km/h 3.7 km/h 91% 0 mm WeatherDisplay:10.37 W/m2 CLR
07:04 7.7 °C 6.3 °C 1026.6 hPa ESE 3.7 km/h 3.7 km/h 91% 0 mm WeatherDisplay:10.37 W/m2 CLR
07:09 7.7 °C 6.3 °C 1027 hPa ESE 3.7 km/h 3.7 km/h 91% 0 mm WeatherDisplay:10.37 W/m2 CLR
07:14 7.7 °C 6.3 °C 1027 hPa ESE 3.7 km/h 3.7 km/h 91% 0 mm WeatherDisplay:10.37 W/m2 CLR
07:19 7.6 °C 6.2 °C 1027 hPa ESE 3.7 km/h 3.7 km/h 91% 0 mm WeatherDisplay:10.37 W/m2 CLR
07:24 7.6 °C 6.2 °C 1027 hPa ESE 3.7 km/h 3.7 km/h 91% 0 mm WeatherDisplay:10.37 W/m2 CLR
07:29 7.6 °C 6.2 °C 1027 hPa ESE 3.7 km/h 3.7 km/h 91% 0 mm WeatherDisplay:10.37 W/m2 CLR
07:34 7.4 °C 6.1 °C 1027 hPa ESE 3.7 km/h 3.7 km/h 91% 0 mm WeatherDisplay:10.37 W/m2 CLR
07:39 7.4 °C 6 °C 1027 hPa ESE 3.7 km/h 3.7 km/h 91% 0 mm WeatherDisplay:10.37 W/m2 CLR
07:45 7.4 °C 6 °C 1027 hPa ESE 3.7 km/h 3.7 km/h 91% 0 mm WeatherDisplay:10.37 W/m2 CLR
07:50 7.3 °C 5.9 °C 1027 hPa ESE 3.7 km/h 3.7 km/h 91% 0 mm WeatherDisplay:10.37 W/m2 CLR
07:55 7.3 °C 5.9 °C 1027 hPa ESE 3.7 km/h 3.7 km/h 91% 0 mm WeatherDisplay:10.37 W/m2 CLR
08:00 7.3 °C 5.9 °C 1027 hPa ESE 3.7 km/h 3.7 km/h 91% 0 mm WeatherDisplay:10.37 W/m2 CLR
08:05 7.3 °C 5.9 °C 1027 hPa ESE 1.9 km/h 1.9 km/h 91% 0 mm WeatherDisplay:10.37 W/m2 FEW
08:10 7.3 °C 5.9 °C 1027 hPa ESE 1.9 km/h 1.9 km/h 91% 0 mm WeatherDisplay:10.37 W/m2 FEW
08:15 7.3 °C 6.1 °C 1027 hPa ESE 1.9 km/h 1.9 km/h 92% 0 mm WeatherDisplay:10.37 W/m2 FEW
08:20 7.5 °C 6.3 °C 1027 hPa ESE 1.6 km/h 1.6 km/h 92% 0 mm WeatherDisplay:10.37 W/m2 FEW
08:25 7.7 °C 6.4 °C 1027 hPa ESE 1.6 km/h 1.6 km/h 92% 0 mm WeatherDisplay:10.37 W/m2 FEW
08:30 7.8 °C 6.6 °C 1027 hPa ESE 1.9 km/h 1.9 km/h 92% 0 mm WeatherDisplay:10.37 W/m2 FEW
08:35 8.1 °C 7.1 °C 1027 hPa ESE 1.9 km/h 1.9 km/h 93% 0 mm WeatherDisplay:10.37 W/m2 FEW
08:40 8.3 °C 7.2 °C 1027.3 hPa ESE 1.9 km/h 1.9 km/h 93% 0 mm WeatherDisplay:10.37 W/m2 FEW
08:45 8.4 °C 7.3 °C 1027.3 hPa ESE 1.9 km/h 1.9 km/h 93% 0 mm WeatherDisplay:10.37 W/m2 FEW
08:50 8.8 °C 7.7 °C 1027.7 hPa ESE 1.9 km/h 1.9 km/h 93% 0 mm WeatherDisplay:10.37 W/m2 FEW
08:55 9.2 °C 8 °C 1027.7 hPa ESE 1.9 km/h 1.9 km/h 92% 0 mm WeatherDisplay:10.37 W/m2 FEW
09:00 9.5 °C 8.1 °C 1027.7 hPa ESE 1.9 km/h 1.9 km/h 91% 0 mm WeatherDisplay:10.37 W/m2 FEW
09:05 9.7 °C 8.2 °C 1027.7 hPa ESE 1.9 km/h   90% 0 mm WeatherDisplay:10.37 W/m2 FEW
09:10 10 °C 8.3 °C 1027.7 hPa ESE 1.9 km/h 1.9 km/h 89% 0 mm WeatherDisplay:10.37 W/m2 FEW
09:15 10.3 °C 8.4 °C 1028 hPa ESE 1.9 km/h 1.9 km/h 88% 0 mm WeatherDisplay:10.37 W/m2 FEW
09:20 10.7 °C 8.1 °C 1028 hPa ESE 1.9 km/h 1.9 km/h 84% 0 mm WeatherDisplay:10.37 W/m2 FEW
09:25 11.2 °C 8.4 °C 1028 hPa ESE 1.9 km/h 1.9 km/h 83% 0 mm WeatherDisplay:10.37 W/m2 FEW
09:30 11.4 °C 7.9 °C 1028 hPa ESE 1.9 km/h 1.9 km/h 79% 0 mm WeatherDisplay:10.37 W/m2 FEW
09:35 11.9 °C 8.2 °C 1028 hPa ESE 1.9 km/h 1.9 km/h 78% 0 mm WeatherDisplay:10.37 W/m2 FEW
09:40 12.3 °C 8.4 °C 1028.3 hPa ESE 1.9 km/h 1.9 km/h 77% 0 mm WeatherDisplay:10.37 W/m2 FEW
09:45 12.6 °C 8.8 °C 1028.3 hPa ESE 1.9 km/h 1.9 km/h 78% 0 mm WeatherDisplay:10.37 W/m2 FEW
09:50 12.8 °C 8.7 °C 1028.3 hPa ESE 1.9 km/h 1.9 km/h 76% 0 mm WeatherDisplay:10.37 W/m2 FEW
09:55 12.9 °C 8.4 °C 1028.3 hPa ESE 1.9 km/h 1.9 km/h 74% 0 mm WeatherDisplay:10.37 W/m2 FEW
10:00 13.1 °C 8.8 °C 1028 hPa ESE 1.9 km/h 1.9 km/h 75% 0 mm WeatherDisplay:10.37 W/m2 FEW
10:06 13.2 °C 8.9 °C 1028.3 hPa East 5.6 km/h 5.6 km/h 75% 0 mm WeatherDisplay:10.37 W/m2 SCT
10:11 13.4 °C 9.1 °C 1028.3 hPa East 5.6 km/h 5.6 km/h 75% 0 mm WeatherDisplay:10.37 W/m2 SCT
10:16 13.7 °C 8.7 °C 1028.3 hPa East 5.6 km/h 5.6 km/h 72% 0 mm WeatherDisplay:10.37 W/m2 SCT
10:21 13.9 °C 8.5 °C 1028.3 hPa East 5.6 km/h 5.6 km/h 70% 0 mm WeatherDisplay:10.37 W/m2 SCT
10:26 14.2 °C 8.6 °C 1028.3 hPa East 5.6 km/h 5.6 km/h 69% 0 mm WeatherDisplay:10.37 W/m2 SCT
10:31 14.5 °C 8.2 °C 1028.3 hPa East 5.6 km/h 5.6 km/h 66% 0 mm WeatherDisplay:10.37 W/m2 SCT
10:36 15.1 °C 8.7 °C 1028.3 hPa East 5.6 km/h 5.6 km/h 66% 0 mm WeatherDisplay:10.37 W/m2 SCT
10:41 15.6 °C 8.8 °C 1028.3 hPa East 5.6 km/h 5.6 km/h 64% 0 mm WeatherDisplay:10.37 W/m2 SCT
10:46 15.9 °C 8.7 °C 1028.3 hPa East 5.6 km/h 5.6 km/h 62% 0 mm WeatherDisplay:10.37 W/m2 SCT
10:51 16.3 °C 8.8 °C 1028.3 hPa East 5.6 km/h 5.6 km/h 61% 0 mm WeatherDisplay:10.37 W/m2 SCT
10:56 16.9 °C 8.8 °C 1028.3 hPa East 5.6 km/h 5.6 km/h 59% 0 mm WeatherDisplay:10.37 W/m2 SCT
11:01 17.3 °C 9.7 °C 1028.3 hPa East 9.3 km/h 9.3 km/h 61% 0 mm WeatherDisplay:10.37 W/m2 FEW
11:06 17.7 °C 8.8 °C 1028.3 hPa East 9.3 km/h 9.3 km/h 56% 0 mm WeatherDisplay:10.37 W/m2 FEW
11:11 17.9 °C 8.5 °C 1028.3 hPa East 9.3 km/h 9.3 km/h 54% 0 mm WeatherDisplay:10.37 W/m2 FEW
11:16 18.1 °C 8.4 °C 1028.3 hPa East 9.3 km/h 9.3 km/h 53% 0 mm WeatherDisplay:10.37 W/m2 FEW
11:21 18.3 °C 8 °C 1028.3 hPa East 9.3 km/h 9.3 km/h 51% 0 mm WeatherDisplay:10.37 W/m2 FEW
11:26 18.7 °C 9.2 °C 1028.3 hPa East 9.3 km/h 9.3 km/h 54% 0 mm WeatherDisplay:10.37 W/m2 FEW
11:31 19.2 °C 8.2 °C 1028.3 hPa East 9.3 km/h 9.3 km/h 49% 0 mm WeatherDisplay:10.37 W/m2 FEW
11:36 19.2 °C 8.5 °C 1028.3 hPa East 9.3 km/h 9.3 km/h 50% 0 mm WeatherDisplay:10.37 W/m2 FEW
11:41 19.5 °C 8.2 °C 1028 hPa East 9.3 km/h 9.3 km/h 48% 0 mm WeatherDisplay:10.37 W/m2 FEW
11:46 19.7 °C 7.1 °C 1028 hPa East 9.3 km/h 9.3 km/h 44% 0 mm WeatherDisplay:10.37 W/m2 FEW
11:51 19.8 °C 8.8 °C 1028 hPa East 9.3 km/h 9.3 km/h 49% 0 mm WeatherDisplay:10.37 W/m2 FEW
11:56 19.9 °C 8.6 °C 1028 hPa East 9.3 km/h 9.3 km/h 48% 0 mm WeatherDisplay:10.37 W/m2 FEW
12:01 19.8 °C 8.1 °C 1027.7 hPa East 9.3 km/h 9.3 km/h 47% 0 mm WeatherDisplay:10.37 W/m2 FEW
12:07 19.7 °C 7.7 °C 1027.7 hPa East 7.4 km/h 7.4 km/h 46% 0 mm WeatherDisplay:10.37 W/m2 FEW
12:12 19.6 °C 7.7 °C 1028 hPa East 7.4 km/h 7.4 km/h 46% 0 mm WeatherDisplay:10.37 W/m2 FEW
12:17 19.4 °C 7.8 °C 1027.7 hPa East 7.4 km/h 7.4 km/h 47% 0 mm WeatherDisplay:10.37 W/m2 FEW
12:22 19.2 °C 7.3 °C 1027.7 hPa East 7.4 km/h 7.4 km/h 46% 0 mm WeatherDisplay:10.37 W/m2 FEW
12:27 19.3 °C 8 °C 1027.7 hPa East 7.4 km/h 7.4 km/h 48% 0 mm WeatherDisplay:10.37 W/m2 FEW
12:32 19.3 °C 7.7 °C 1027.7 hPa East 7.4 km/h 7.4 km/h 47% 0 mm WeatherDisplay:10.37 W/m2 FEW
12:37 19.3 °C 7.7 °C 1027.7 hPa East 7.4 km/h 7.4 km/h 47% 0 mm WeatherDisplay:10.37 W/m2 FEW
12:42 19.4 °C 7.4 °C 1027.7 hPa East 7.4 km/h 7.4 km/h 46% 0 mm WeatherDisplay:10.37 W/m2 FEW
12:47 19.4 °C 7.8 °C 1027.7 hPa East 7.4 km/h 7.4 km/h 47% 0 mm WeatherDisplay:10.37 W/m2 FEW
12:52 19.4 °C 7.8 °C 1027.3 hPa East 7.4 km/h 7.4 km/h 47% 0 mm WeatherDisplay:10.37 W/m2 FEW
12:57 19.6 °C 7.7 °C 1027.3 hPa East 7.4 km/h 7.4 km/h 46% 0 mm WeatherDisplay:10.37 W/m2 FEW
13:02 19.7 °C 8.1 °C 1027.3 hPa North 9.3 km/h 9.3 km/h 47% 0 mm WeatherDisplay:10.37 W/m2 FEW
13:07 19.7 °C 7.4 °C 1027.3 hPa North 9.3 km/h 9.3 km/h 45% 0 mm WeatherDisplay:10.37 W/m2 FEW
13:12 19.7 °C 7.4 °C 1027 hPa North 9.3 km/h 9.3 km/h 45% 0 mm WeatherDisplay:10.37 W/m2 FEW
13:17 19.9 °C 7.3 °C 1027 hPa North 9.3 km/h 9.3 km/h 44% 0 mm WeatherDisplay:10.37 W/m2 FEW
13:20 19.9 °C 7 °C 1027 hPa North 9.3 km/h 9.3 km/h 43% 0 mm WeatherDisplay:10.37 W/m2 FEW
13:25 19.9 °C 7.6 °C 1027 hPa North 9.3 km/h 9.3 km/h 45% 0 mm WeatherDisplay:10.37 W/m2 FEW
13:30 20.2 °C 7.5 °C 1027 hPa North 9.3 km/h 9.3 km/h 44% 0 mm WeatherDisplay:10.37 W/m2 FEW
13:35 20.4 °C 7.4 °C 1026.6 hPa North 9.3 km/h 9.3 km/h 43% 0 mm WeatherDisplay:10.37 W/m2 FEW
13:38 20.6 °C 7.2 °C 1026.6 hPa North 9.3 km/h 9.3 km/h 42% 0 mm WeatherDisplay:10.37 W/m2 FEW
13:43 20.6 °C 7.2 °C 1026.6 hPa North 9.3 km/h 9.3 km/h 42% 0 mm WeatherDisplay:10.37 W/m2 FEW
13:49 20.8 °C 7.1 °C 1026.6 hPa North 9.3 km/h 9.3 km/h 41% 0 mm WeatherDisplay:10.37 W/m2 FEW
13:54 21.3 °C 7.5 °C 1026.3 hPa North 9.3 km/h 9.3 km/h 41% 0 mm WeatherDisplay:10.37 W/m2 FEW
13:59 21.8 °C 8.3 °C 1026.3 hPa North 9.3 km/h 9.3 km/h 42% 0 mm WeatherDisplay:10.37 W/m2 FEW
14:04 22.2 °C 7.9 °C 1026.3 hPa North 9.3 km/h 9.3 km/h 40% 0 mm WeatherDisplay:10.37 W/m2 FEW
14:09 22.7 °C 7.7 °C 1026 hPa North 9.3 km/h 9.3 km/h 38% 0 mm WeatherDisplay:10.37 W/m2 FEW
14:14 22.9 °C 7.1 °C 1026 hPa North 9.3 km/h 9.3 km/h 36% 0 mm WeatherDisplay:10.37 W/m2 FEW
14:19 22.8 °C 7.8 °C 1026 hPa North 9.3 km/h 9.3 km/h 38% 0 mm WeatherDisplay:10.37 W/m2 FEW
14:24 22.9 °C 7.4 °C 1026 hPa North 9.3 km/h 9.3 km/h 37% 0 mm WeatherDisplay:10.37 W/m2 FEW
14:29 23.1 °C 8.4 °C 1025.6 hPa North 9.3 km/h 9.3 km/h 39% 0 mm WeatherDisplay:10.37 W/m2 FEW
14:34 23 °C 7.9 °C 1025.6 hPa North 9.3 km/h 9.3 km/h 38% 0 mm WeatherDisplay:10.37 W/m2 FEW
14:39 22.6 °C 7.2 °C 1025.6 hPa North 9.3 km/h 9.3 km/h 37% 0 mm WeatherDisplay:10.37 W/m2 FEW
14:44 22.5 °C 7.4 °C 1025.3 hPa North 9.3 km/h 9.3 km/h 38% 0 mm WeatherDisplay:10.37 W/m2 FEW
14:49 22.7 °C 8 °C 1025.3 hPa North 9.3 km/h 9.3 km/h 39% 0 mm WeatherDisplay:10.37 W/m2 FEW
14:54 22.5 °C 7.8 °C 1025.3 hPa North 9.3 km/h 9.3 km/h 39% 0 mm WeatherDisplay:10.37 W/m2 FEW
14:59 22.8 °C 8.1 °C 1025.3 hPa North 9.3 km/h 9.3 km/h 39% 0 mm WeatherDisplay:10.37 W/m2 FEW
15:04 22.8 °C 8.4 °C 1025.3 hPa North 9.3 km/h 9.3 km/h 40% 0 mm WeatherDisplay:10.37 W/m2 FEW
15:09 22.4 °C 8.1 °C 1025.3 hPa North 9.3 km/h 9.3 km/h 40% 0 mm WeatherDisplay:10.37 W/m2 FEW
15:14 22.2 °C 7.6 °C 1025.3 hPa North 9.3 km/h 9.3 km/h 39% 0 mm WeatherDisplay:10.37 W/m2 FEW
15:19 22.1 °C 6.7 °C 1025.3 hPa North 9.3 km/h 9.3 km/h 37% 0 mm WeatherDisplay:10.37 W/m2 FEW
15:25 21.9 °C 6.1 °C 1024.9 hPa North 9.3 km/h 9.3 km/h 36% 0 mm WeatherDisplay:10.37 W/m2 FEW
15:30 21.8 °C 6.5 °C 1024.9 hPa North 9.3 km/h 9.3 km/h 37% 0 mm WeatherDisplay:10.37 W/m2 FEW
15:35 21.8 °C 6.1 °C 1024.9 hPa North 9.3 km/h 9.3 km/h 36% 0 mm WeatherDisplay:10.37 W/m2 FEW
15:40 21.7 °C 6.4 °C 1024.9 hPa North 9.3 km/h 9.3 km/h 37% 0 mm WeatherDisplay:10.37 W/m2 FEW
15:45 21.8 °C 6.8 °C 1024.9 hPa North 9.7 km/h 9.7 km/h 38% 0 mm WeatherDisplay:10.37 W/m2 FEW
15:50 21.7 °C 7.2 °C 1024.9 hPa North 9.7 km/h 9.7 km/h 39% 0 mm WeatherDisplay:10.37 W/m2 FEW
15:55 21.8 °C 7.3 °C 1024.9 hPa North 9.7 km/h 9.7 km/h 39% 0 mm WeatherDisplay:10.37 W/m2 FEW
16:00 21.7 °C 5.2 °C 1024.9 hPa North 9.7 km/h 9.7 km/h 34% 0 mm WeatherDisplay:10.37 W/m2 FEW
16:05 21.7 °C 5.1 °C 1024.9 hPa North 9.7 km/h 9.7 km/h 34% 0 mm WeatherDisplay:10.37 W/m2 FEW
16:10 21.7 °C 4.7 °C 1024.9 hPa North 9.7 km/h 9.7 km/h 33% 0 mm WeatherDisplay:10.37 W/m2 FEW
16:15 21.7 °C 5.6 °C 1024.9 hPa North 9.7 km/h 9.7 km/h 35% 0 mm WeatherDisplay:10.37 W/m2 FEW
16:20 21.7 °C 5.6 °C 1024.9 hPa North 9.3 km/h 9.3 km/h 35% 0 mm WeatherDisplay:10.37 W/m2 FEW
16:25 21.7 °C 6.3 °C 1024.9 hPa North 9.7 km/h 9.7 km/h 37% 0 mm WeatherDisplay:10.37 W/m2 FEW
16:30 21.6 °C 5.4 °C 1024.9 hPa North 9.7 km/h 9.7 km/h 35% 0 mm WeatherDisplay:10.37 W/m2 FEW
16:35 21.5 °C 7.3 °C 1024.9 hPa North 9.3 km/h 9.3 km/h 40% 0 mm WeatherDisplay:10.37 W/m2 FEW
16:40 21.2 °C 7.8 °C 1024.9 hPa North 9.3 km/h 9.3 km/h 42% 0 mm WeatherDisplay:10.37 W/m2 FEW
16:45 21.1 °C 6.6 °C 1024.9 hPa North 9.3 km/h 9.3 km/h 39% 0 mm WeatherDisplay:10.37 W/m2 FEW
16:50 21 °C 7.6 °C 1024.6 hPa North 9.3 km/h 9.3 km/h 42% 0 mm WeatherDisplay:10.37 W/m2 FEW
16:55 20.9 °C 6.4 °C 1024.9 hPa North 9.3 km/h 9.3 km/h 39% 0 mm WeatherDisplay:10.37 W/m2 FEW
17:00 21 °C 7.9 °C 1024.6 hPa North 9.3 km/h 9.3 km/h 43% 0 mm WeatherDisplay:10.37 W/m2 FEW
17:05 20.9 °C 7.1 °C 1024.6 hPa NNE 5.6 km/h 5.6 km/h 41% 0 mm WeatherDisplay:10.37 W/m2 FEW
17:10 20.7 °C 8.3 °C 1024.6 hPa NNE 5.6 km/h 5.6 km/h 45% 0 mm WeatherDisplay:10.37 W/m2 FEW
17:15 20.3 °C 8.7 °C 1024.6 hPa NNE 5.6 km/h 5.6 km/h 47% 0 mm WeatherDisplay:10.37 W/m2 FEW
17:20 20.2 °C 9.2 °C 1024.6 hPa NNE 5.6 km/h 5.6 km/h 49% 0 mm WeatherDisplay:10.37 W/m2 FEW
17:25 20.1 °C 9.3 °C 1024.6 hPa NNE 5.6 km/h 5.6 km/h 50% 0 mm WeatherDisplay:10.37 W/m2 FEW
17:30 19.9 °C 8.9 °C 1024.6 hPa NNE 5.6 km/h 5.6 km/h 49% 0 mm WeatherDisplay:10.37 W/m2 FEW
17:36 19.9 °C 9.2 °C 1024.6 hPa NNE 5.6 km/h 5.6 km/h 50% 0 mm WeatherDisplay:10.37 W/m2 FEW
17:41 19.8 °C 9.6 °C 1024.6 hPa NNE 5.6 km/h 5.6 km/h 52% 0 mm WeatherDisplay:10.37 W/m2 FEW
17:46 19.6 °C 9.5 °C 1024.6 hPa NNE 5.6 km/h 5.6 km/h 52% 0 mm WeatherDisplay:10.37 W/m2 FEW
17:51 19.4 °C 9.6 °C 1024.6 hPa NNE 5.6 km/h 5.6 km/h 53% 0 mm WeatherDisplay:10.37 W/m2 FEW
17:56 19.4 °C 9.6 °C 1024.6 hPa NNE 5.6 km/h 5.6 km/h 53% 0 mm WeatherDisplay:10.37 W/m2 FEW
18:01 19.3 °C 8.7 °C 1024.3 hPa NNE 5.6 km/h 5.6 km/h 50% 0 mm WeatherDisplay:10.37 W/m2 FEW
18:06 19.3 °C 8.9 °C 1024.6 hPa NNE 5.6 km/h 5.6 km/h 51% 0 mm WeatherDisplay:10.37 W/m2 FEW
18:11 19.1 °C 9.6 °C 1024.6 hPa NNE 5.6 km/h 5.6 km/h 54% 0 mm WeatherDisplay:10.37 W/m2 FEW
18:16 18.8 °C 9.3 °C 1024.3 hPa NNE 5.6 km/h 5.6 km/h 54% 0 mm WeatherDisplay:10.37 W/m2 FEW
18:21 18.7 °C 9.2 °C 1024.3 hPa NNE 5.6 km/h 5.6 km/h 54% 0 mm WeatherDisplay:10.37 W/m2 FEW
18:26 18.6 °C 9.3 °C 1024.6 hPa NNE 5.6 km/h 5.6 km/h 55% 0 mm WeatherDisplay:10.37 W/m2 FEW
18:31 18.4 °C 9.4 °C 1024.6 hPa NNE 5.6 km/h 5.6 km/h 56% 0 mm WeatherDisplay:10.37 W/m2 FEW
18:36 18.3 °C 9.3 °C 1024.6 hPa NNE 5.6 km/h 5.6 km/h 56% 0 mm WeatherDisplay:10.37 W/m2 FEW
18:41 18.1 °C 9.7 °C 1024.6 hPa NNE 5.6 km/h 5.6 km/h 58% 0 mm WeatherDisplay:10.37 W/m2 FEW
18:46 17.9 °C 9.6 °C 1024.3 hPa NNE 5.6 km/h 5.6 km/h 58% 0 mm WeatherDisplay:10.37 W/m2 FEW
18:51 17.8 °C 9.4 °C 1024.3 hPa NNE 5.6 km/h 5.6 km/h 58% 0 mm WeatherDisplay:10.37 W/m2 FEW
18:56 17.6 °C 9.5 °C 1024.6 hPa NNE 5.6 km/h 5.6 km/h 59% 0 mm WeatherDisplay:10.37 W/m2 FEW
19:01 17.5 °C 9.7 °C 1024.6 hPa North 5.6 km/h 5.6 km/h 60% 0 mm WeatherDisplay:10.37 W/m2 FEW
19:06 17.3 °C 9.7 °C 1024.6 hPa North 5.6 km/h 5.6 km/h 61% 0 mm WeatherDisplay:10.37 W/m2 FEW
19:12 17.1 °C 9.5 °C 1024.6 hPa North 5.6 km/h 5.6 km/h 61% 0 mm WeatherDisplay:10.37 W/m2 FEW
19:17 16.9 °C 9.6 °C 1024.6 hPa North 5.6 km/h 5.6 km/h 62% 0 mm WeatherDisplay:10.37 W/m2 FEW
19:22 16.8 °C 9.5 °C 1024.6 hPa North 5.6 km/h 5.6 km/h 62% 0 mm WeatherDisplay:10.37 W/m2 FEW
19:27 16.8 °C 9.9 °C 1024.6 hPa North 5.6 km/h 5.6 km/h 64% 0 mm WeatherDisplay:10.37 W/m2 FEW
19:32 16.6 °C 10.2 °C 1024.9 hPa North 5.6 km/h 5.6 km/h 66% 0 mm WeatherDisplay:10.37 W/m2 FEW
19:37 16.3 °C 10.1 °C 1024.9 hPa North 5.6 km/h 5.6 km/h 67% 0 mm WeatherDisplay:10.37 W/m2 FEW
19:42 16 °C 10.1 °C 1024.9 hPa North 5.6 km/h 5.6 km/h 68% 0 mm WeatherDisplay:10.37 W/m2 FEW
19:47 15.8 °C 10.4 °C 1024.9 hPa North 5.6 km/h 5.6 km/h 70% 0 mm WeatherDisplay:10.37 W/m2 FEW
19:52 15.7 °C 10.2 °C 1024.9 hPa North 5.6 km/h 5.6 km/h 70% 0 mm WeatherDisplay:10.37 W/m2 FEW
19:57 15.5 °C 10.7 °C 1024.9 hPa North 5.6 km/h 5.6 km/h 73% 0 mm WeatherDisplay:10.37 W/m2 FEW
20:02 15.4 °C 10.6 °C 1024.9 hPa North 5.6 km/h 5.6 km/h 73% 0 mm WeatherDisplay:10.37 W/m2 FEW
20:07 15.2 °C 10.6 °C 1024.9 hPa North 5.6 km/h 5.6 km/h 74% 0 mm WeatherDisplay:10.37 W/m2 FEW
20:12 15.2 °C 10.3 °C 1024.9 hPa West 5.6 km/h 5.6 km/h 73% 0 mm WeatherDisplay:10.37 W/m2 FEW
20:17 15.2 °C 10.6 °C 1024.9 hPa West 5.6 km/h 5.6 km/h 74% 0 mm WeatherDisplay:10.37 W/m2 FEW
20:22 15.1 °C 10.8 °C 1024.9 hPa West 5.6 km/h 5.6 km/h 76% 0 mm WeatherDisplay:10.37 W/m2 FEW
20:27 14.8 °C 10.7 °C 1024.9 hPa West 5.6 km/h 5.6 km/h 76% 0 mm WeatherDisplay:10.37 W/m2 FEW
20:32 14.6 °C 10.6 °C 1024.9 hPa West 5.6 km/h 5.6 km/h 77% 0 mm WeatherDisplay:10.37 W/m2 FEW
20:37 14.3 °C 10.7 °C 1024.9 hPa West 5.6 km/h 5.6 km/h 79% 0 mm WeatherDisplay:10.37 W/m2 FEW
20:42 14.2 °C 10.6 °C 1025.3 hPa West 5.6 km/h 5.6 km/h 79% 0 mm WeatherDisplay:10.37 W/m2 FEW
20:47 14.1 °C 10.7 °C 1024.9 hPa West 5.6 km/h 5.6 km/h 80% 0 mm WeatherDisplay:10.37 W/m2 FEW
20:52 13.9 °C 10.5 °C 1024.9 hPa West 5.6 km/h 5.6 km/h 80% 0 mm WeatherDisplay:10.37 W/m2 FEW
20:57 13.8 °C 10.6 °C 1025.3 hPa West 5.6 km/h 5.6 km/h 81% 0 mm WeatherDisplay:10.37 W/m2 FEW
21:02 13.6 °C 10.4 °C 1024.9 hPa North 5.6 km/h 5.6 km/h 81% 0 mm WeatherDisplay:10.37 W/m2 FEW
21:07 13.5 °C 10.3 °C 1024.9 hPa North 5.6 km/h 5.6 km/h 81% 0 mm WeatherDisplay:10.37 W/m2 FEW
21:12 13.4 °C 10.2 °C 1025.3 hPa North 5.6 km/h 5.6 km/h 81% 0 mm WeatherDisplay:10.37 W/m2 FEW
21:17 13.2 °C 10.2 °C 1025.3 hPa North 5.6 km/h 5.6 km/h 82% 0 mm WeatherDisplay:10.37 W/m2 FEW
21:22 13.1 °C 10.2 °C 1025.3 hPa North 5.6 km/h 5.6 km/h 83% 0 mm WeatherDisplay:10.37 W/m2 FEW
21:28 12.9 °C 10.1 °C 1025.3 hPa North 5.6 km/h 5.6 km/h 83% 0 mm WeatherDisplay:10.37 W/m2 FEW
21:33 12.8 °C 10.2 °C 1025.3 hPa North 5.6 km/h 5.6 km/h 84% 0 mm WeatherDisplay:10.37 W/m2 FEW
21:38 12.7 °C 10.1 °C 1025.3 hPa North 5.6 km/h 5.6 km/h 84% 0 mm WeatherDisplay:10.37 W/m2 FEW
21:43 12.6 °C 10 °C 1025.3 hPa North 5.6 km/h 5.6 km/h 84% 0 mm WeatherDisplay:10.37 W/m2 FEW
21:48 12.6 °C 10.1 °C 1025.3 hPa North 5.6 km/h 5.6 km/h 85% 0 mm WeatherDisplay:10.37 W/m2 FEW
21:53 12.4 °C 9.9 °C 1025.3 hPa North 5.6 km/h 5.6 km/h 85% 0 mm WeatherDisplay:10.37 W/m2 FEW
21:58 12.3 °C 9.9 °C 1025.3 hPa North 5.6 km/h 5.6 km/h 85% 0 mm WeatherDisplay:10.37 W/m2 FEW
22:00 12.3 °C 9.8 °C 1025.3 hPa North 5.6 km/h 5.6 km/h 85% 0 mm WeatherDisplay:10.37 W/m2 FEW
22:05 12.2 °C 9.8 °C 1025.3 hPa North 5.6 km/h 5.6 km/h 85% 0 mm WeatherDisplay:10.37 W/m2 FEW
22:10 12.1 °C 9.8 °C 1025.3 hPa North 5.6 km/h 5.6 km/h 86% 0 mm WeatherDisplay:10.37 W/m2 FEW
22:15 12.1 °C 9.8 °C 1025.3 hPa North 5.6 km/h 5.6 km/h 86% 0 mm WeatherDisplay:10.37 W/m2 FEW
22:20 12.1 °C 9.8 °C 1025.3 hPa North 5.6 km/h 5.6 km/h 86% 0 mm WeatherDisplay:10.37 W/m2 FEW
22:25 12 °C 9.7 °C 1025.3 hPa North 5.6 km/h 5.6 km/h 86% 0 mm WeatherDisplay:10.37 W/m2 FEW
22:30 11.9 °C 9.6 °C 1025.3 hPa North 5.6 km/h 5.6 km/h 86% 0 mm WeatherDisplay:10.37 W/m2 FEW
22:35 11.8 °C 9.5 °C 1025.3 hPa North 5.6 km/h 5.6 km/h 86% 0 mm WeatherDisplay:10.37 W/m2 FEW
22:40 11.7 °C 9.6 °C 1025.6 hPa North 5.6 km/h 5.6 km/h 87% 0 mm WeatherDisplay:10.37 W/m2 FEW
22:46 11.7 °C 9.6 °C 1025.6 hPa North 5.6 km/h 5.6 km/h 87% 0 mm WeatherDisplay:10.37 W/m2 FEW
22:51 11.6 °C 9.4 °C 1025.6 hPa North 5.6 km/h 5.6 km/h 87% 0 mm WeatherDisplay:10.37 W/m2 FEW
22:56 11.5 °C 9.4 °C 1025.6 hPa North 5.6 km/h 5.6 km/h 87% 0 mm WeatherDisplay:10.37 W/m2 FEW
23:01 11.4 °C 9.3 °C 1025.6 hPa North 5.6 km/h 5.6 km/h 87% 0 mm WeatherDisplay:10.37 W/m2 FEW
23:06 11.3 °C 9.2 °C 1025.6 hPa North 5.6 km/h 5.6 km/h 87% 0 mm WeatherDisplay:10.37 W/m2 CLR
23:11 11.2 °C 9.1 °C 1025.6 hPa North 5.6 km/h 5.6 km/h 87% 0 mm WeatherDisplay:10.37 W/m2 CLR
23:16 11.1 °C 9.1 °C 1025.6 hPa North 5.6 km/h 5.6 km/h 87% 0 mm WeatherDisplay:10.37 W/m2 CLR
23:21 11 °C 9.1 °C 1025.6 hPa North 5.6 km/h 5.6 km/h 88% 0 mm WeatherDisplay:10.37 W/m2 CLR
23:24 11 °C 9.1 °C 1025.6 hPa North 5.6 km/h 5.6 km/h 88% 0 mm WeatherDisplay:10.37 W/m2 CLR
23:25 10.9 °C 9.1 °C 1025.6 hPa North 5.6 km/h 5.6 km/h 88% 0 mm WeatherDisplay:10.37 W/m2 CLR
23:31 10.9 °C 9 °C 1025.6 hPa North 5.6 km/h 5.6 km/h 88% 0 mm WeatherDisplay:10.37 W/m2 CLR
23:36 10.8 °C 8.9 °C 1025.6 hPa North 5.6 km/h 5.6 km/h 88% 0 mm WeatherDisplay:10.37 W/m2 CLR
23:41 10.7 °C 8.8 °C 1025.6 hPa North 5.6 km/h 5.6 km/h 88% 0 mm WeatherDisplay:10.37 W/m2 CLR
23:46 10.7 °C 8.9 °C 1025.3 hPa North 5.6 km/h 5.6 km/h 89% 0 mm WeatherDisplay:10.37 W/m2 CLR
23:51 10.6 °C 8.8 °C 1025.3 hPa North 5.6 km/h 5.6 km/h 89% 0 mm WeatherDisplay:10.37 W/m2 CLR
23:56 10.5 °C 8.8 °C 1025.3 hPa North 5.6 km/h 5.6 km/h 89% 0 mm WeatherDisplay:10.37 W/m2 CLR
Piedmont Bend
Compliments of Weather Underground - 4 mb